Home > Weather > Memphis > Past weeks

Flag for USA Past Weather in Memphis, Tennessee, USA — Yesterday and Last 2 Weeks

Now
86 °F

Scattered clouds.


Feels Like: 92 °F
Forecast: 73 / 92 °F
Wind: 7 mph from North

Location: Memphis International Airport

Current Time: Jun 28, 2016 at 11:52:17 AM

Latest Report: Jun 28, 2016 at 10:54 AM


Visibility: 10 mi

Pressure: 30.08 "Hg

Humidity: 61%

Dew Point: 71 °F

Location of MemphisLocation

Past Weather in Memphis — Graph

°F

Memphis Temperature Yesterday

Maximum temperature yesterday: 93 °F (at 3:54 PM)
Minimum temperature yesterday: 75 °F (at 11:59 PM)
Average temperature yesterday: 82 °F

High & Low Weather Summary for the Past Weeks

 TemperatureHumidityPressure
High98 °F (Jun 25, 1:54 PM)91% (Jun 16, 4:54 AM)30.26 "Hg (Jun 16, 4:54 AM)
Low73 °F (Jun 15, 9:54 PM)41% (Jun 25, 3:54 PM)29.79 "Hg (Jun 14, 4:54 PM)
Average85 °F66%30.01 "Hg
* Reported Jun 13 9:54 AM — Jun 28 9:54 AM, Memphis, Weather by CustomWeather, © 2016

Note: Actual official high and low records may vary slightly from our data, if they occured in-between our weather recording intervals... More about our weather records

Advertising

Memphis Weather History for the Previous 24 Hours

Scroll right to see more
 ConditionsComfort  
Time TempWeatherWind HumidityBarometerVisibility
9:54 AM
Tue, Jun 28
83 °FScattered clouds.6 mph68%30.08 "Hg10 mi
8:54 AM80 °FScattered clouds.10 mph74%30.08 "Hg10 mi
7:54 AM78 °FScattered clouds.10 mph79%30.07 "Hg8 mi
6:54 AM76 °FLow clouds.7 mph85%30.06 "Hg5 mi
5:54 AM75 °FFog.7 mph88%30.04 "Hg6 mi
4:54 AM75 °FFog.7 mph88%30.03 "Hg6 mi
3:54 AM75 °FPassing clouds.8 mph88%30.02 "Hg7 mi
2:54 AM75 °FPassing clouds.5 mph90%30.03 "Hg7 mi
1:54 AM76 °FPassing clouds.5 mph88%30.03 "Hg8 mi
12:54 AM76 °FLow clouds.6 mph88%30.04 "Hg8 mi
11:59 PM
Mon, Jun 27
75 °FMostly cloudy.6 mph89%30.07 "Hg10 mi
10:54 PM76 °FOvercast.8 mph88%30.06 "Hg10 mi
9:54 PM76 °FPartly cloudy.7 mph88%30.06 "Hg10 mi
8:54 PM77 °FOvercast.8 mph88%30.02 "Hg9 mi
7:54 PM77 °FCloudy.5 mph88%30.01 "Hg8 mi
6:54 PM77 °FLight rain. Cloudy.5 mph88%30.01 "Hg8 mi
5:54 PM77 °FLight rain. More clouds than sun.8 mph90%30.02 "Hg7 mi
4:54 PM77 °FThunderstorms. Fog.10 mph88%30.04 "Hg6 mi
3:54 PM93 °FBroken clouds.8 mph52%29.98 "Hg10 mi
2:54 PM90 °FBroken clouds.5 mph63%29.99 "Hg10 mi
1:54 PM92 °FPartly sunny.9 mph54%30.00 "Hg10 mi
12:54 PM92 °FPartly sunny.8 mph60%30.02 "Hg10 mi
11:54 AM89 °FOvercast.No wind68%30.04 "Hg10 mi
Weather by CustomWeather, © 2016

See weather overviewHow to use our weather pages